H1 CPF 2 NER 2021 11 29 9 333 01 glonass138 H2 1805301 9138 43508 2021 11 29 0 0 0 2021 12 2 23 45 0 900 1 1 0 0 0 1 H9 10 0 59547 0.00000 0 -5554757.528 11454513.886 22112622.885 10 0 59547 900.00000 0 -6926946.072 9045030.531 22828304.294 10 0 59547 1800.00000 0 -8507282.138 6692741.769 23100934.988 10 0 59547 2700.00000 0 -10260314.056 4458239.497 22925118.328 10 0 59547 3600.00000 0 -12140458.361 2395026.021 22304153.577 10 0 59547 4500.00000 0 -14093751.780 547488.267 21249980.905 10 0 59547 5400.00000 0 -16059972.488 -1050737.581 19782959.552 10 0 59547 6300.00000 0 -17975043.358 -2377943.288 17931482.489 10 0 59547 7200.00000 0 -19773617.629 -3425018.767 15731434.141 10 0 59547 8100.00000 0 -21391739.394 -4195587.588 13225500.696 10 0 59547 9000.00000 0 -22769467.625 -4705602.486 10462345.564 10 0 59547 9900.00000 0 -23853353.372 -4982418.230 7495665.504 10 0 59547 10800.00000 0 -24598665.575 -5063381.477 4383145.462 10 0 59547 11700.00000 0 -24971271.074 -4993997.814 1185332.565 10 0 59547 12600.00000 0 -24949088.785 -4825754.323 -2035548.291 10 0 59547 13500.00000 0 -24523055.896 -4613690.919 -5216813.453 10 0 59547 14400.00000 0 -23697564.632 -4413824.524 -8296549.417 10 0 59547 15300.00000 0 -22490350.651 -4280536.542 -11214826.553 10 0 59547 16200.00000 0 -20931837.505 -4264035.639 -13914872.980 10 0 59547 17100.00000 0 -19063964.774 -4408004.528 -16344184.893 10 0 59547 18000.00000 0 -16938549.349 -4747531.436 -18455551.034 10 0 59547 18900.00000 0 -14615249.073 -5307414.598 -20207971.109 10 0 59547 19800.00000 0 -12159214.406 -6100912.008 -21567450.367 10 0 59547 20700.00000 0 -9638526.823 -7128989.605 -22507655.215 10 0 59547 21600.00000 0 -7121531.001 -8380099.809 -23010417.770 10 0 59547 22500.00000 0 -4674171.976 -9830499.898 -23066080.377 10 0 59547 23400.00000 0 -2357447.790 -11445096.941 -22673674.183 10 0 59547 24300.00000 0 -225082.824 -13178783.999 -21840929.179 10 0 59547 25200.00000 0 1678482.527 -14978211.789 -20584116.167 10 0 59547 26100.00000 0 3319703.584 -16783921.881 -18927724.264 10 0 59547 27000.00000 0 4677079.114 -18532752.504 -16903980.526 10 0 59547 27900.00000 0 5741789.086 -20160416.720 -14552221.131 10 0 59547 28800.00000 0 6517797.638 -21604145.524 -11918126.332 10 0 59547 29700.00000 0 7021418.812 -22805285.716 -9052833.885 10 0 59547 30600.00000 0 7280364.934 -23711744.243 -6011947.906 10 0 59547 31500.00000 0 7332318.954 -24280176.955 -2854462.263 10 0 59547 32400.00000 0 7223091.997 -24477830.417 358380.878 10 0 59547 33300.00000 0 7004444.550 -24283959.738 3564275.382 10 0 59547 34200.00000 0 6731663.717 -23690763.047 6701055.498 10 0 59547 35100.00000 0 6460999.140 -22703793.391 9707897.050 10 0 59547 36000.00000 0 6247065.953 -21341830.524 12526492.405 10 0 59547 36900.00000 0 6140324.469 -19636217.599 15102176.625 10 0 59547 37800.00000 0 6184743.003 -17629689.935 17384983.309 10 0 59547 38700.00000 0 6415742.515 -15374744.051 19330610.103 10 0 59547 39600.00000 0 6858509.945 -12931614.256 20901275.488 10 0 59547 40500.00000 0 7526751.744 -10365940.164 22066450.742 10 0 59547 41400.00000 0 8421940.785 -7746221.213 22803453.205 10 0 59547 42300.00000 0 9533089.327 -5141163.133 23097889.533 10 0 59547 43200.00000 0 10837058.836 -2617025.649 22943940.396 10 0 59547 44100.00000 0 12299395.203 -235080.727 22344480.834 10 0 59547 45000.00000 0 13875655.870 1950713.715 21311033.457 10 0 59547 45900.00000 0 15513174.847 3895728.563 19863554.683 10 0 59547 46800.00000 0 17153193.042 5566283.388 18030057.245 10 0 59547 47700.00000 0 18733265.726 6940804.287 15846075.334 10 0 59547 48600.00000 0 20189846.904 8010471.686 13353981.797 10 0 59547 49500.00000 0 21460942.448 8779331.374 10602169.805 10 0 59547 50400.00000 0 22488720.394 9263864.426 7644114.341 10 0 59547 51300.00000 0 23221968.109 9492034.668 4537331.511 10 0 59547 52200.00000 0 23618292.110 9501854.456 1342255.949 10 0 59547 53100.00000 0 23645966.782 9339530.136 -1878941.278 10 0 59547 54000.00000 0 23285353.051 9057266.608 -5063570.537 10 0 59547 54900.00000 0 22529826.130 8710825.093 -8149652.611 10 0 59547 55800.00000 0 21386172.380 8356938.745 -11077133.684 10 0 59547 56700.00000 0 19874437.964 8050696.884 -13789061.701 10 0 59547 57600.00000 0 18027235.242 7843009.815 -16232700.304 10 0 59547 58500.00000 0 15888536.026 7778262.583 -18360557.969 10 0 59547 59400.00000 0 13512002.387 7892257.708 -20131312.055 10 0 59547 60300.00000 0 10958925.144 8210534.423 -21510609.825 10 0 59547 61200.00000 0 8295856.500 8747135.621 -22471731.176 10 0 59547 62100.00000 0 5592035.781 9503874.599 -22996100.825 10 0 59547 63000.00000 0 2916715.454 10470132.446 -23073640.805 10 0 59547 63900.00000 0 336498.501 11623194.385 -22702957.228 10 0 59547 64800.00000 0 -2087202.818 12929110.850 -21891358.541 10 0 59547 65700.00000 0 -4300482.156 14344047.050 -20654705.631 10 0 59547 66600.00000 0 -6258933.195 15816064.383 -19017097.186 10 0 59547 67500.00000 0 -7929241.325 17287259.126 -17010396.821 10 0 59547 68400.00000 0 -9290308.362 18696168.951 -14673611.208 10 0 59547 69300.00000 0 -10333865.190 19980346.650 -12052131.342 10 0 59547 70200.00000 0 -11064548.594 21078993.462 -9196851.497 10 0 59547 71100.00000 0 -11499440.832 21935541.908 -6163182.740 10 0 59547 72000.00000 0 -11667092.748 22500080.004 -3009979.996 10 0 59547 72900.00000 0 -11606072.796 22731515.354 201596.759 10 0 59547 73800.00000 0 -11363104.054 22599388.357 3409265.288 10 0 59547 74700.00000 0 -10990868.393 22085258.413 6550825.012 10 0 59547 75600.00000 0 -10545570.860 21183604.728 9565358.898 10 0 59547 76500.00000 0 -10084367.239 19902203.624 12394410.242 10 0 59547 77400.00000 0 -9662763.344 18261965.942 14983111.688 10 0 59547 78300.00000 0 -9332095.709 16296240.694 17281244.985 10 0 59547 79200.00000 0 -9137199.827 14049613.098 19244211.307 10 0 59547 80100.00000 0 -9114364.165 11576246.198 20833893.747 10 0 59547 81000.00000 0 -9289656.263 8937834.063 22019395.679 10 0 59547 81900.00000 0 -9677691.666 6201250.486 22777641.077 10 0 59547 82800.00000 0 -10280898.052 3435989.860 23093825.292 10 0 59547 83700.00000 0 -11089306.315 711505.352 22961707.627 10 0 59547 84600.00000 0 -12080878.501 -1905446.204 22383739.773 10 0 59547 85500.00000 0 -13222360.028 -4353343.205 21371027.155 10 0 59548 0.00000 0 -14470621.711 -6578217.164 19943123.378 10 0 59548 900.00000 0 -15774437.164 -8535654.895 18127659.998 10 0 59548 1800.00000 0 -17076620.382 -10192399.087 15959819.889 10 0 59548 2700.00000 0 -18316436.724 -11527484.854 13481660.877 10 0 59548 3600.00000 0 -19432184.720 -12532861.990 10741303.756 10 0 59548 4500.00000 0 -20363840.698 -13213478.374 7791999.244 10 0 59548 5400.00000 0 -21055654.341 -13586821.238 4691091.800 10 0 59548 6300.00000 0 -21458585.023 -13681936.127 1498900.527 10 0 59548 7200.00000 0 -21532475.086 -13537965.607 -1722460.554 10 0 59548 8100.00000 0 -21247867.184 -13202270.330 -4910299.175 10 0 59548 9000.00000 0 -20587387.783 -12728212.984 -8002573.822 10 0 59548 9900.00000 0 -19546637.323 -12172700.045 -10939109.947 10 0 59548 10800.00000 0 -18134548.572 -11593586.637 -13662778.728 10 0 59548 11700.00000 0 -16373197.354 -11047055.504 -16120614.538 10 0 59548 12600.00000 0 -14297073.209 -10585082.002 -18264848.654 10 0 59548 13500.00000 0 -11951840.358 -10253093.127 -20053838.820 10 0 59548 14400.00000 0 -9392640.825 -10087919.954 -21452876.598 10 0 59548 15300.00000 0 -6682010.773 -10116130.148 -22434857.123 10 0 59548 16200.00000 0 -3887497.049 -10352810.767 -22980798.867 10 0 59548 17100.00000 0 -1079073.118 -10800852.378 -23080204.101 10 0 59548 18000.00000 0 1673538.251 -11450764.167 -22731253.866 10 0 59548 18900.00000 0 4303524.813 -12281027.348 -21940834.516 10 0 59548 19800.00000 0 6749517.524 -13258971.602 -20724395.992 10 0 59548 20700.00000 0 8957891.816 -14342137.357 -19105645.144 10 0 59548 21600.00000 0 10884743.233 -15480066.480 -17116080.371 10 0 59548 22500.00000 0 12497456.811 -16616446.126 -14794376.766 10 0 59548 23400.00000 0 13775806.414 -17691515.725 -12185633.714 10 0 59548 24300.00000 0 14712539.971 -18644636.150 -9340499.405 10 0 59548 25200.00000 0 15313427.841 -19416913.309 -6314189.049 10 0 59548 26100.00000 0 15596773.815 -19953766.056 -3165415.656 10 0 59548 27000.00000 0 15592410.691 -20207330.642 44746.042 10 0 59548 27900.00000 0 15340223.736 -20138600.646 3254040.773 10 0 59548 28800.00000 0 14888265.001 -19719212.365 6400236.132 10 0 59548 29700.00000 0 14290538.469 -18932800.405 9422325.079 10 0 59548 30600.00000 0 13604549.672 -17775866.097 12261704.469 10 0 59548 31500.00000 0 12888723.110 -16258121.716 14863306.891 10 0 59548 32400.00000 0 12199796.235 -14402295.206 17176664.276 10 0 59548 33300.00000 0 11590299.594 -12243402.560 19156883.033 10 0 59548 34200.00000 0 11106229.031 -9827517.069 20765512.205 10 0 59548 35100.00000 0 10785007.746 -7210085.432 21971288.251 10 0 59548 36000.00000 0 10653823.910 -4453859.414 22750742.409 10 0 59548 36900.00000 0 10728413.888 -1626527.737 23088659.017 10 0 59548 37800.00000 0 11012342.574 1201854.811 22978375.985 10 0 59548 38700.00000 0 11496811.726 3961535.578 22421921.346 10 0 59548 39600.00000 0 12161005.173 6585719.782 21429982.779 10 0 59548 40500.00000 0 12972957.383 9013104.405 20021709.997 10 0 59548 41400.00000 0 13890909.930 11190185.644 18224352.919 10 0 59548 42300.00000 0 14865099.754 13073244.247 16072741.724 10 0 59548 43200.00000 0 15839904.767 14629926.382 13608617.877 10 0 59548 44100.00000 0 16756256.917 15840354.178 10879828.289 10 0 59548 45000.00000 0 17554221.115 16697719.614 7939397.703 10 0 59548 45900.00000 0 18175630.964 17208337.102 4844497.033 10 0 59548 46800.00000 0 18566669.353 17391152.881 1655327.770 10 0 59548 47700.00000 0 18680283.952 17276732.409 -1566055.346 10 0 59548 48600.00000 0 18478334.343 16905769.165 -4756959.760 10 0 59548 49500.00000 0 17933378.762 16327178.793 -7855284.049 10 0 59548 50400.00000 0 17030023.713 15595860.169 -10800735.307 10 0 59548 51300.00000 0 15765778.305 14770219.249 -13536010.254 10 0 59548 52200.00000 0 14151376.300 13909561.500 -16007916.199 10 0 59548 53100.00000 0 12210551.591 13071464.221 -18168409.296 10 0 59548 54000.00000 0 9979276.000 12309240.510 -19975529.620 10 0 59548 54900.00000 0 7504491.014 11669602.497 -21394214.855 10 0 59548 55800.00000 0 4842386.407 11190622.567 -22396977.071 10 0 59548 56700.00000 0 2056297.474 10900078.342 -22964430.036 10 0 59548 57600.00000 0 -785691.606 10814250.670 -23085657.606 10 0 59548 58500.00000 0 -3613338.759 10937224.511 -22758416.833 10 0 59548 59400.00000 0 -6356922.032 11260721.367 -21989172.709 10 0 59548 60300.00000 0 -8949894.147 11764469.445 -20792964.573 10 0 59548 61200.00000 0 -11331404.062 12417095.271 -19193107.313 10 0 59548 62100.00000 0 -13448581.997 13177498.653 -17220733.556 10 0 59548 63000.00000 0 -15258494.251 13996652.728 -14914185.821 10 0 59548 63900.00000 0 -16729687.828 14819753.162 -12318270.514 10 0 59548 64800.00000 0 -17843262.105 15588625.939 -9483388.064 10 0 59548 65700.00000 0 -18593424.342 16244292.441 -6464555.882 10 0 59548 66600.00000 0 -18987507.245 16729583.906 -3320342.940 10 0 59548 67500.00000 0 -19045449.232 16991695.222 -111736.406 10 0 59548 68400.00000 0 -18798760.337 16984570.571 3099037.873 10 0 59548 69300.00000 0 -18289018.108 16671020.377 6249718.249 10 0 59548 70200.00000 0 -17565957.389 16024480.255 9279210.396 10 0 59548 71100.00000 0 -16685234.755 15030337.532 12128767.528 10 0 59548 72000.00000 0 -15705961.817 13686769.035 14743125.039 10 0 59548 72900.00000 0 -14688111.136 12005054.084 17071567.891 10 0 59548 73800.00000 0 -13689903.669 10009348.491 19068910.516 10 0 59548 74700.00000 0 -12765287.271 7735927.752 20696370.539 10 0 59548 75600.00000 0 -11961611.906 5231929.548 21922319.926 10 0 59548 76500.00000 0 -11317598.909 2553646.352 22722899.309 10 0 59548 77400.00000 0 -10861689.418 -235562.307 23082483.802 10 0 59548 78300.00000 0 -10610841.282 -3067652.781 22993991.311 10 0 59548 79200.00000 0 -10569825.128 -5872477.884 22459027.173 10 0 59548 80100.00000 0 -10731049.577 -8580459.195 21487861.818 10 0 59548 81000.00000 0 -11074923.466 -11125241.135 20099241.231 10 0 59548 81900.00000 0 -11570740.567 -13446217.341 18320032.977 10 0 59548 82800.00000 0 -12178050.246 -15490824.646 16184713.714 10 0 59548 83700.00000 0 -12848456.997 -17216509.442 13734707.183 10 0 59548 84600.00000 0 -13527773.357 -18592284.457 11017584.646 10 0 59548 85500.00000 0 -14158435.573 -19599810.820 8086142.765 10 0 59549 0.00000 0 -14682079.689 -20233960.074 4997376.809 10 0 59549 900.00000 0 -15042168.904 -20502832.942 1811367.468 10 0 59549 1800.00000 0 -15186559.508 -20427233.494 -1409892.342 10 0 59549 2700.00000 0 -15069896.637 -20039622.515 -4603712.768 10 0 59549 3600.00000 0 -14655736.452 -19382593.976 -7707935.604 10 0 59549 4500.00000 0 -13918303.924 -18506940.221 -10662152.819 10 0 59549 5400.00000 0 -12843810.600 -17469388.556 -13408889.951 10 0 59549 6300.00000 0 -11431275.522 -16330105.894 -15894730.493 10 0 59549 7200.00000 0 -9692813.752 -15150077.846 -18071358.609 10 0 59549 8100.00000 0 -7653379.586 -13988473.679 -19896499.595 10 0 59549 9000.00000 0 -5349974.650 -12900108.782 -21334739.810 10 0 59549 9900.00000 0 -2830353.711 -11933111.808 -22358210.362 10 0 59549 10800.00000 0 -151281.987 -11126894.469 -22947121.914 10 0 59549 11700.00000 0 2623583.612 -10510508.897 -23090140.970 10 0 59549 12600.00000 0 5426101.280 -10101460.791 -22784601.121 10 0 59549 13500.00000 0 8186239.465 -9905027.174 -22036546.040 10 0 59549 14400.00000 0 10834753.070 -9914106.287 -20860604.035 10 0 59549 15300.00000 0 13305830.168 -10109604.802 -19279697.200 10 0 59549 16200.00000 0 15539600.211 -10461345.008 -17324591.142 10 0 59549 17100.00000 0 17484400.551 -10929452.969 -15033294.174 10 0 59549 18000.00000 0 19098708.121 -11466168.574 -12450317.687 10 0 59549 18900.00000 0 20352657.138 -12018000.820 -9625811.928 10 0 59549 19800.00000 0 21229080.868 -12528137.273 -6614593.718 10 0 59549 20700.00000 0 21724035.187 -12939006.046 -3475084.887 10 0 59549 21600.00000 0 21846783.292 -13194882.221 -268181.723 10 0 59549 22500.00000 0 21619243.274 -13244428.812 2943922.793 10 0 59549 23400.00000 0 21074922.592 -13043065.049 6098941.216 10 0 59549 24300.00000 0 20257384.870 -12555062.002 9135695.241 10 0 59549 25200.00000 0 19218313.827 -11755276.894 11995297.538 10 0 59549 26100.00000 0 18015255.886 -10630452.623 14622289.085 10 0 59549 27000.00000 0 16709136.235 -9180027.043 16965710.309 10 0 59549 27900.00000 0 15361652.458 -7416416.982 18980085.687 10 0 59549 28800.00000 0 14032654.771 -5364763.827 20626303.070 10 0 59549 29700.00000 0 12777622.341 -3062149.788 21872371.153 10 0 59549 30600.00000 0 11645341.024 -556315.840 22694040.798 10 0 59549 31500.00000 0 10675879.487 2096066.904 23075278.318 10 0 59549 32400.00000 0 9898948.192 4831502.238 23008581.657 10 0 59549 33300.00000 0 9332709.847 7582064.466 22495133.114 10 0 59549 34200.00000 0 8983091.230 10277986.405 21544785.170 10 0 59549 35100.00000 0 8843625.384 12850333.476 20175879.056 10 0 59549 36000.00000 0 8895831.123 15233653.671 18414898.654 10 0 59549 36900.00000 0 9110114.245 17368493.617 16295965.521 10 0 59549 37800.00000 0 9447152.889 19203676.259 13860183.860 10 0 59549 38700.00000 0 9859708.854 20698245.193 11154847.272 10 0 59549 39600.00000 0 10294788.536 21822994.144 8232522.152 10 0 59549 40500.00000 0 10696061.922 22561517.412 5150025.215 10 0 59549 41400.00000 0 11006436.849 22910737.040 1967315.017 10 0 59549 42300.00000 0 11170678.727 22880884.470 -1253680.429 10 0 59549 43200.00000 0 11137963.722 22494937.675 -4450276.494 10 0 59549 44100.00000 0 10864256.007 21787537.880 -7560260.670 10 0 59549 45000.00000 0 10314407.050 20803432.179 -10523112.142 10 0 59549 45900.00000 0 9463886.772 19595508.617 -13281187.456 10 0 59549 46800.00000 0 8300072.104 18222507.529 -15780848.285 10 0 59549 47700.00000 0 6823037.462 16746506.620 -17973508.595 10 0 59549 48600.00000 0 5045812.893 15230286.614 -19816580.525 10 0 59549 49500.00000 0 2994098.262 13734688.947 -21274300.548 10 0 59549 50400.00000 0 705444.966 12316077.015 -22318420.103 10 0 59549 51300.00000 0 -1772061.017 11024007.544 -22928747.866 10 0 59549 52200.00000 0 -4381560.129 9899209.379 -23093533.894 10 0 59549 53100.00000 0 -7059551.052 8971953.693 -22809688.968 10 0 59549 54000.00000 0 -9738305.036 8260882.828 -22082835.752 10 0 59549 54900.00000 0 -12348462.753 7772345.512 -20927191.468 10 0 59549 55800.00000 0 -14821706.212 7500264.939 -19365284.941 10 0 59549 56700.00000 0 -17093395.450 7426543.803 -17427513.885 10 0 59549 57600.00000 0 -19105061.203 7521987.954 -15151551.166 10 0 59549 58500.00000 0 -20806650.745 7747708.772 -12581611.623 10 0 59549 59400.00000 0 -22158434.408 8056944.328 -9767593.543 10 0 59549 60300.00000 0 -23132494.400 8397222.018 -6764111.226 10 0 59549 61200.00000 0 -23713734.736 8712771.084 -3629437.286 10 0 59549 62100.00000 0 -23900371.129 8947083.003 -424374.956 10 0 59549 63000.00000 0 -23703881.246 9045511.558 2788917.928 10 0 59549 63900.00000 0 -23148418.133 8957802.778 5948130.511 10 0 59549 64800.00000 0 -22269712.056 8640447.814 8992003.012 10 0 59549 65700.00000 0 -21113507.156 8058759.291 11861510.143 10 0 59549 66600.00000 0 -19733598.716 7188583.199 14501001.112 10 0 59549 67500.00000 0 -18189553.305 6017573.633 16859274.456 10 0 59549 68400.00000 0 -16544207.144 4545975.857 18890567.253 10 0 59549 69300.00000 0 -14861047.154 2786883.677 20555439.960 10 0 59549 70200.00000 0 -13201583.824 765958.887 21821540.130 10 0 59549 71100.00000 0 -11622825.265 -1479377.186 22664230.646 10 0 59549 72000.00000 0 -10174957.569 -3901248.030 23067070.444 10 0 59549 72900.00000 0 -8899327.939 -6443069.705 23022138.514 10 0 59549 73800.00000 0 -7826814.502 -9041671.058 22530194.688 10 0 59549 74700.00000 0 -6976650.750 -11629699.758 21600673.650 10 0 59549 75600.00000 0 -6355753.653 -14138215.475 20251511.590 10 0 59549 76500.00000 0 -5958583.537 -16499363.399 18508808.016 10 0 59549 77400.00000 0 -5767541.726 -18649017.424 16406328.308 10 0 59549 78300.00000 0 -5753889.235 -20529283.204 13984855.687 10 0 59549 79200.00000 0 -5879147.900 -22090756.654 11291404.355 10 0 59549 80100.00000 0 -6096924.748 -23294443.192 8378308.443 10 0 59549 81000.00000 0 -6355082.263 -24113257.006 5302204.197 10 0 59549 81900.00000 0 -6598162.210 -24533037.048 2122925.134 10 0 59549 82800.00000 0 -6769959.651 -24553036.691 -1097667.832 10 0 59549 83700.00000 0 -6816137.037 -24185866.285 -4296897.872 10 0 59549 84600.00000 0 -6686766.381 -23456891.109 -7412500.842 10 0 59549 85500.00000 0 -6338690.460 -22403110.368 -10383845.905 10 0 59550 0.00000 0 -5737601.735 -21071565.215 -13153123.178 10 0 59550 900.00000 0 -4859749.335 -19517342.819 -15666475.822 10 0 59550 1800.00000 0 -3693201.673 -17801263.256 -17875050.080 10 0 59550 2700.00000 0 -2238609.319 -15987344.959 -19735947.503 10 0 59550 3600.00000 0 -509435.929 -14140157.648 -21213056.992 10 0 59550 4500.00000 0 1468353.406 -12322173.655 -22277752.291 10 0 59550 5400.00000 0 3657133.761 -10591228.860 -22909441.661 10 0 59550 6300.00000 0 6008957.179 -8998199.294 -23095959.861 10 0 59550 7200.00000 0 8467329.128 -7584989.973 -22833795.583 10 0 59550 8100.00000 0 10969350.884 -6382919.010 -22128150.794 10 0 59550 9000.00000 0 13448139.061 -5411563.200 -20992831.549 10 0 59550 9900.00000 0 15835421.915 -4678111.870 -19449972.952 10 0 59550 10800.00000 0 18064205.028 -4177254.339 -17529603.992 10 0 59550 11700.00000 0 20071396.070 -3891604.059 -15269060.860 10 0 59550 12600.00000 0 21800280.014 -3792640.185 -12712260.197 10 0 59550 13500.00000 0 23202742.503 -3842125.656 -9908846.249 10 0 59550 14400.00000 0 24241149.484 -3993941.098 -6913228.293 10 0 59550 15300.00000 0 24889805.356 -4196256.522 -3783526.850 10 0 59550 16200.00000 0 25135929.560 -4393948.703 -580448.926 10 0 59550 17100.00000 0 24980111.412 -4531161.877 2633886.142 10 0 59550 18000.00000 0 24436224.725 -4553903.464 5797147.523 10 0 59550 18900.00000 0 23530806.247 -4412565.060 8847997.323 10 0 59550 19800.00000 0 22301924.238 -4064262.099 11727275.517 10 0 59550 20700.00000 0 20797584.659 -3474893.224 14379142.510 10 0 59550 21600.00000 0 19073741.646 -2620832.085 16752157.603 10 0 59550 22500.00000 0 17191995.241 -1490179.655 18800272.809 10 0 59550 23400.00000 0 15217072.271 -83523.470 20483723.146 10 0 59550 24300.00000 0 13214195.083 1585829.348 21769796.616 10 0 59550 25200.00000 0 11246447.392 3492156.570 22633469.313 10 0 59550 26100.00000 0 9372246.549 5598151.828 23057893.566 10 0 59550 27000.00000 0 7643027.032 7856249.184 23034729.743 10 0 59550 27900.00000 0 6101231.221 10210387.988 22564315.086 10 0 59550 28800.00000 0 4778690.870 12598146.135 21655665.874 10 0 59550 29700.00000 0 3695466.470 14953154.420 20326312.212 10 0 59550 30600.00000 0 2859192.763 17207692.681 18601967.756 10 0 59550 31500.00000 0 2264957.657 19295360.275 16516039.842 10 0 59550 32400.00000 0 1895719.430 21153709.997 14108988.551 10 0 59550 33300.00000 0 1723244.534 22726735.489 11427546.248 10 0 59550 34200.00000 0 1709526.251 23967107.784 8523812.175 10 0 59550 35100.00000 0 1808623.949 24838066.828 5454239.338 10 0 59550 36000.00000 0 1968844.620 25314887.990 2278533.356 10 0 59550 36900.00000 0 2135173.590 25385861.281 -941514.826 10 0 59550 37800.00000 0 2251850.420 25052741.630 -4143239.005 10 0 59550 38700.00000 0 2264979.621 24330650.924 -7264326.090 10 0 59550 39600.00000 0 2125064.238 23247435.879 -10244037.716 10 0 59550 40500.00000 0 1789353.568 21842509.048 -13024400.301 10 0 59550 41400.00000 0 1223904.291 20165222.162 -15551339.469 10 0 59550 42300.00000 0 405266.663 18272840.910 -17775735.968 10 0 59550 43200.00000 0 -678276.513 16228206.954 -19654382.203 10 0 59550 44100.00000 0 -2025971.221 14097185.911 -21150820.720 10 0 59550 45000.00000 0 -3624385.610 11946008.820 -22236048.552 10 0 59550 45900.00000 0 -5447744.613 9838618.533 -22889074.320 10 0 59550 46800.00000 0 -7458792.184 7834131.826 -23097318.011 10 0 59550 47700.00000 0 -9610145.356 5984522.746 -22856846.465 10 0 59550 48600.00000 0 -11846083.848 4332622.933 -22172440.867 10 0 59550 49500.00000 0 -14104700.895 2910521.069 -21057495.646 10 0 59550 50400.00000 0 -16320325.911 1738426.764 -19533751.332 10 0 59550 51300.00000 0 -18426118.465 824044.537 -17630866.965 10 0 59550 52200.00000 0 -20356726.000 162482.241 -15385840.501 10 0 59550 53100.00000 0 -22050894.964 -263303.943 -12842288.550 10 0 59550 54000.00000 0 -23453927.104 -481548.303 -10049599.292 10 0 59550 54900.00000 0 -24519878.978 -530239.934 -7061974.807 10 0 59550 55800.00000 0 -25213413.359 -455274.134 -3937381.272 10 0 59550 56700.00000 0 -25511225.700 -308269.610 -736427.124 10 0 59550 57600.00000 0 -25402986.453 -144144.138 2478809.205 10 0 59550 58500.00000 0 -24891760.149 -18551.350 5645979.371 10 0 59550 59400.00000 0 -23993883.961 14712.874 8703669.912 10 0 59550 60300.00000 0 -22738310.929 -93775.258 11592588.627 10 0 59550 61200.00000 0 -21165445.298 -386738.676 14256709.694 10 0 59550 62100.00000 0 -19325518.478 -898154.739 16644355.666 10 0 59550 63000.00000 0 -17276573.124 -1651581.230 18709195.821 10 0 59550 63900.00000 0 -15082139.047 -2658924.146 20411141.825 10 0 59550 64800.00000 0 -12808697.272 -3919700.091 21717123.871 10 0 59550 65700.00000 0 -10523037.230 -5420825.453 22601732.618 10 0 59550 66600.00000 0 -8289616.472 -7136942.706 23047714.703 10 0 59550 67500.00000 0 -6168032.069 -9031271.896 23046312.330 10 0 59550 68400.00000 0 -4210708.246 -11056953.539 22597440.165 10 0 59550 69300.00000 0 -2460895.996 -13158828.595 21709695.674 10 0 59550 70200.00000 0 -951067.482 -15275582.862 20400202.063 10 0 59550 71100.00000 0 298228.208 -17342167.709 18694285.958 10 0 59550 72000.00000 0 1279000.449 -19292397.012 16624995.143 10 0 59550 72900.00000 0 1995917.305 -21061612.452 14232464.738 10 0 59550 73800.00000 0 2465866.727 -22589305.898 11563143.203 10 0 59550 74700.00000 0 2716997.453 -23821588.782 8668892.618 10 0 59550 75600.00000 0 2787280.552 -24713404.464 5605980.331 10 0 59550 76500.00000 0 2722652.906 -25230389.910 2433981.576 10 0 59550 77400.00000 0 2574821.961 -25350307.591 -785385.194 10 0 59550 78300.00000 0 2398825.660 -25063986.523 -3989466.913 10 0 59550 79200.00000 0 2250452.121 -24375732.204 -7115904.026 10 0 59550 80100.00000 0 2183629.701 -23303187.684 -10103853.078 10 0 59550 81000.00000 0 2247899.368 -21876651.514 -12895178.930 10 0 59550 81900.00000 0 2486077.795 -20137881.333 -15435592.461 10 0 59550 82800.00000 0 2932211.196 -18138433.782 -17675710.824 10 0 59550 83700.00000 0 3609907.445 -15937610.922 -19572019.250 10 0 59550 84600.00000 0 4531117.699 -13600099.780 -21087715.642 10 0 59550 85500.00000 0 5695419.445 -11193404.356 -22193421.728 99